This is the latest recevied weather packets stored in our database for station/object KO4YAW. If no packets are shown the sender has not sent any weather packets the latest 10 day(s).
| Time | Temp. | Humidity | Pressure | Rain* | Wind** | Luminosity | Snow |
|---|---|---|---|---|---|---|---|
| 1788563163 | 0° C | 100% | - | 0 mm | - | - | - |
| 1788562263 | 0° C | 100% | - | 0 mm | - | - | - |
| 1788561363 | 35° C | 19% | 1016.3 hPa | 0 mm | - | 489 W/m² | - |
| 1788560463 | 34.44° C | 19% | 1016.4 hPa | 0 mm | - | 527 W/m² | - |
| 1788559563 | 35° C | 19% | 1016.4 hPa | 0 mm | - | 598 W/m² | - |
| 1788558663 | 35° C | 18% | 1016.5 hPa | 0 mm | - | 650 W/m² | - |
| 1788557763 | 33.89° C | 18% | 1016.5 hPa | 0 mm | - | 725 W/m² | - |
| 1788556863 | 35° C | 17% | 1016.6 hPa | 0 mm | - | 785 W/m² | - |
| 1788555963 | 35° C | 17% | 1016.9 hPa | 0 mm | - | 732 W/m² | - |
| 1788555063 | 34.44° C | 16% | 1017 hPa | 0 mm | - | 823 W/m² | - |
| 1788554163 | 34.44° C | 16% | 1017.2 hPa | 0 mm | - | 856 W/m² | - |
| 1788553263 | 33.33° C | 17% | 1017.3 hPa | 0 mm | - | 886 W/m² | - |
| 1788552363 | 33.89° C | 17% | 1017.5 hPa | 0 mm | - | 916 W/m² | - |
| 1788551463 | 32.78° C | 17% | 1017.7 hPa | 0 mm | - | 934 W/m² | - |
| 1788550563 | 33.33° C | 17% | 1017.8 hPa | 0 mm | - | 956 W/m² | - |
| 1788549544 | 32.78° C | 18% | 1017.9 hPa | 0 mm | - | 974 W/m² | - |
| 1788548629 | 32.22° C | 17% | 1018.2 hPa | 0 mm | - | 245 W/m² | - |
| 1788547729 | 31.11° C | 19% | 1018.3 hPa | 0 mm | - | 110 W/m² | - |
| 1788546829 | 31.11° C | 18% | 1018.4 hPa | 0 mm | - | 164 W/m² | - |
| 1788545929 | 30.56° C | 18% | 1018.6 hPa | 0 mm | - | 655 W/m² | - |
| 1788545029 | 30.56° C | 18% | 1018.8 hPa | 0 mm | - | 730 W/m² | - |
| 1788544129 | 30.56° C | 20% | 1018.9 hPa | 0 mm | - | 107 W/m² | - |
| 1788543229 | 29.44° C | 21% | 1018.9 hPa | 0 mm | - | 53 W/m² | - |
| 1788542329 | 30° C | 21% | 1018.8 hPa | 0 mm | - | 487 W/m² | - |
| 1788541429 | 29.44° C | 20% | 1018.8 hPa | 0 mm | - | 824 W/m² | - |
* Rain since midnight (hover to see other rain measurements)
** Current wind speed in m/s (hover to see current wind gust speed)